Location: Izdebno
(52.6670°N, 16.2170°E)
Time: 19:17:03
(UTC+02:00)

SR - Pass Details

Date: 03 March 2024
Orbit: 577 x 862 km, 66.7° (Epoch: 21 April)

Event Time Altitude Azimuth Distance (km) Brightness Sun altitude
Rises 11:44:47 0° 151° (SSE) 3,435 ? 30.6°
Reaches altitude 10° 11:49:17 10° 119° (ESE) 2,485 ? 30.7°
Maximum altitude 11:50:56 11° 102° (ESE) 2,385 ? 30.7°
Drops below altitude 10° 11:52:34 10° 85° (E) 2,461 ? 30.7°
Sets 11:56:56 0° 53° (NE) 3,347 ? 30.8°
